Regional Weather Roundup
Issued by NWS

Home | Current Version | Previous Version | Graphics & Text | Print | Product List | Glossary On
Versions: 1 2 3 4 5 6 7 8 9 10 11 12 13 14 15 16 17 18 19 20 21 22 23 24 25 26 27 28 29 30 31 32 33 34 35 36 37 38 39 40 41 42 43 44 45 46 47 48 49 50
000
ASUS43 KFSD 030310
RWRSD

WEATHER ROUNDUP FOR SOUTH DAKOTA
NATIONAL WEATHER SERVICE SIOUX FALLS SD
900 PM CST MON MAR 02 2015

NOTE: "FAIR" INDICATES FEW OR NO CLOUDS BELOW 12,000 FEET WITH NO
SIGNIFICANT WEATHER AND/OR OBSTRUCTIONS TO VISIBILITY.


SDZ001>005-009-010-012>017-030400-
NORTHWEST AND NORTH CENTRAL SOUTH DAKOTA

CITY           SKY/WX    TMP DP  RH WIND       PRES   REMARKS
BUFFALO          N/A     35  16  45 NW24G30   29.65S WCI  23
FAITH            N/A     36  10  34 N5        29.68F
MOBRIDGE       CLOUDY    36  20  52 S7        29.69F
$$

SDZ012>016-024>037-041>051-057-063-072>074-030400-
SOUTHWEST AND SOUTH CENTRAL SOUTH DAKOTA

CITY           SKY/WX    TMP DP  RH WIND       PRES   REMARKS
RAPID CTY ARPT CLOUDY    39  21  48 N12       29.67R
PIERRE         CLOUDY    37  15  40 SE14      29.73F
CUSTER         LGT SNOW  27  24  89 NE9       29.62F FOG     WCI  18
ELLSWORTH AFB  CLOUDY    39  20  45 N15G22    29.67R
PHILIP         CLOUDY    39  21  48 S7        29.68F
PINE RIDGE     CLOUDY    32  22  66 S12       29.66R WCI  23
SPEARFISH      CLOUDY    32  19  59 NW8       29.72R WCI  25
WINNER         FAIR      37  16  42 S13       29.76F
$$

SDZ004>011-016>023-039-040-030400-
NORTHEAST SOUTH DAKOTA

CITY           SKY/WX    TMP DP  RH WIND       PRES   REMARKS
ABERDEEN       PTCLDY    28  19  69 S22       29.82F WCI  14
WATERTOWN      CLOUDY    27  20  75 S21G30    29.88F WCI  13
SISSETON         N/A     27  20  75 S21       29.88F WCI  13
$$

SDZ017-020-022-023-036>040-048>070-030400-
SOUTHEAST SOUTH DAKOTA

CITY           SKY/WX    TMP DP  RH WIND       PRES   REMARKS
SIOUX FALLS    CLOUDY    29  20  69 SE18      29.94F WCI  16
HURON          MOCLDY    31  21  66 S17G25    29.85F WCI  19
CHAMBERLAIN    CLOUDY    35  16  45 SE10      29.80F WCI  28
MITCHELL       CLOUDY    33  21  61 SE16      29.88F WCI  23
YANKTON        CLOUDY    34  18  51 SE16      29.92F WCI  23
$$

ABBREVIATIONS USED IN REMARKS
   TC - TEMPERATURE IN CELSIUS
  WCI - WIND CHILL INDEX
   HX - HEAT INDEX
  VSB - VISIBILITY



USA.gov is the U.S. government's official web portal to all federal, state and local government web resources and services.